Location: Hilton Head Island
(32.2163°N, 80.7526°W)
Time: 13:03:52
(UTC-05:00)

Vanguard 2 - Pass Details

Date: 16 February 2026
Orbit: 553 x 2896 km, 32.9° (Epoch: 6 March)

Event Time Altitude Azimuth Distance (km) Brightness Sun altitude
Exits shadow 05:07:46 21° 198° (SSW) 1,958 9.4 -25.3°
Maximum altitude 05:10:25 29° 159° (SSE) 1,443 9.0 -24.7°
Drops below altitude 10° 05:14:30 10° 98° (E) 2,073 10.8 -23.9°
Sets 05:16:45 0° 86° (E) 2,850 11.9 -23.4°
